Tracking 31027 objects as of 19-Jul-2025
HD Live streaming from Space Station
objects crossing your sky now

ONEWEB-0411

Track ONEWEB-0411 now!
10-day predictions
ONEWEB-0411 is classified as:


NORAD ID: 51623
Int'l Code: 2022-012B
Perigee: 1,227.2 km
Apogee: 1,230.5 km
Inclination: 87.9 °
Period: 109.9 minutes
Semi major axis: 7599 km
RCS: Unknown
Launch date: February 10, 2022
Source: United Kingdom (UK)
Launch site: FRENCH GUIANA (FRGUI)
Your satellite tracking list
IRIDIUM 135
Track 1 satellite(s)




NASA's NSSDC Master Catalog

Two Line Element Set (TLE):
1 51623U 22012B   25199.71252675  .00000536  00000-0  14985-2 0  9998
2 51623  87.8821 102.7774 0002153  61.1726 298.9617 13.10375164165617
Source of the keplerian elements: AFSPC